This demonstration page uses our WeatherBlox Daily Observations layout. Learn more.

Left ArrowRight Arrow

40.92945, -100.16068

Hourly Observations for November 30, 2015

Temp ( °F °C ) Dew Point ( °F °C ) Humidity (%) Winds ( mph kmh ) Pressure ( in mb ) Visibility ( mi km ) Precip ( " mm )
12:15 am 00:15 Cloudy with Mist and Fog 29 -1.6 28 -2.5 94 94 N N/A 30.21 1023 3 4 N/A
12:35 am 00:35 Cloudy with Mist and Fog 29 -1.7 28 -2.5 94 94 N N/A 30.21 1023 2 3 N/A
12:55 am 00:55 Cloudy with Light Wintry Mix 29 -1.7 28 -2.5 94 94 NNE 3 6 30.21 1023 2 3 N/A
1:15 am 01:15 Cloudy with Light Wintry Mix 29 -1.7 28 -2.5 94 94 N N/A 30.18 1022 2 3 N/A
1:35 am 01:35 Cloudy with Light Wintry Mix 29 -1.5 28 -2.2 95 95 NE 5 7 30.15 1021 2 3 N/A
1:55 am 01:55 Cloudy with Mist and Fog 29 -1.7 28 -2.5 94 94 NE 3 6 30.18 1022 3 4 N/A
2:15 am 02:15 Cloudy with Light Wintry Mix 29 -1.7 28 -2.3 96 96 N N/A 30.18 1022 3 4 N/A
2:35 am 02:35 Cloudy with Light Wintry Mix 29 -1.6 28 -2.2 96 96 NNE 3 6 30.18 1022 3 4 N/A
2:55 am 02:55 Cloudy with Light Wintry Mix 29 -1.7 28 -2.4 95 95 NE 3 6 30.18 1022 3 4 N/A
3:15 am 03:15 Cloudy with Light Wintry Mix 29 -1.8 28 -2.5 95 95 NE 5 7 30.18 1022 3 4 N/A
3:35 am 03:35 Cloudy with Light Wintry Mix 29 -1.7 28 -2.3 96 96 NNE 6 9 30.12 1020 3 4 N/A
3:55 am 03:55 Cloudy with Light Wintry Mix 29 -1.8 28 -2.5 95 95 NNE 3 6 30.12 1020 3 5 N/A
4:15 am 04:15 Cloudy with Light Wintry Mix 29 -1.7 28 -2.4 95 95 N N/A 30.12 1020 3 5 N/A
4:35 am 04:35 Cloudy with Light Wintry Mix 29 -1.7 28 -2.3 96 96 N N/A 30.12 1020 2 3 0.01 0.25
4:55 am 04:55 Cloudy with Light Wintry Mix 29 -1.6 28 -2.2 96 96 NE 3 6 30.12 1020 3 4 0.01 0.25
5:15 am 05:15 Cloudy with Light Wintry Mix 29 -1.7 28 -2.3 96 96 N N/A 30.12 1020 3 5 N/A
5:35 am 05:35 Cloudy with Light Snow 29 -1.7 28 -2.3 96 96 NE 3 6 30.12 1020 3 5 N/A
5:55 am 05:55 Cloudy with Light Snow 29 -1.6 28 -2.2 96 96 NE 3 6 30.12 1020 3 4 0.01 0.25
6:15 am 06:15 Cloudy with Light Snow 29 -1.6 28 -2.2 96 96 N N/A 30.09 1019 3 4 N/A
6:35 am 06:35 Cloudy with Snow 29 -1.8 28 -2.5 95 95 N N/A 30.09 1019 1 2 0.01 0.25
6:55 am 06:55 Cloudy with Snow 29 -1.8 28 -2.5 95 95 N N/A 30.09 1019 1 1 0.01 0.25
7:15 am 07:15 Cloudy with Light Snow 29 -1.8 28 -2.5 95 95 N N/A 30.09 1019 2 3 0.01 0.25
7:35 am 07:35 Cloudy with Light Snow 28 -2 28 -2.5 96 96 N 3 6 30.09 1019 3 4 0.01 0.25
7:55 am 07:55 Cloudy with Light Snow 28 -2 28 -2.5 96 96 N N/A 30.09 1019 2 3 0.01 0.25
8:15 am 08:15 Cloudy with Light Snow 29 -1.9 28 -2.5 96 96 NNW 3 6 30.09 1019 1 1 0.01 0.25
8:35 am 08:35 Cloudy with Light Snow 29 -1.8 28 -2.5 95 95 NNW 3 6 30.09 1019 1 1 0.01 0.25
8:55 am 08:55 Cloudy with Light Snow 29 -1.8 28 -2.4 96 96 NNW 5 7 30.09 1019 2 3 0.02 0.51
9:15 am 09:15 Cloudy with Light Snow 28 -2 27 -2.6 96 96 N 6 9 30.09 1019 5 8 0.01 0.25
9:35 am 09:35 Cloudy with Light Snow 29 -1.7 28 -2.4 95 95 N 5 7 30.09 1019 7 11 0.02 0.51
9:55 am 09:55 Cloudy 29 -1.5 28 -2.4 94 94 N 5 7 30.09 1019 10 16 0.03 0.76
10:15 am 10:15 Cloudy with Light Snow 30 -1.3 28 -2.4 92 92 NW 6 9 30.09 1019 10 16 0.01 0.25
10:35 am 10:35 Cloudy with Light Snow 29 -1.4 27 -2.6 92 92 WNW 6 9 30.09 1019 5 8 0.01 0.25
10:55 am 10:55 Cloudy with Light Snow 29 -1.5 27 -2.7 92 92 WNW 5 7 30.09 1019 4 6 0.01 0.25
11:15 am 11:15 Cloudy 30 -1.3 27 -3 88 88 N N/A 30.06 1018 7 11 N/A
11:35 am 11:35 Cloudy 30 -1.1 27 -3 87 87 WNW 5 7 30.06 1018 10 16 N/A
11:55 am 11:55 Cloudy with Light Snow 30 -1 27 -2.7 88 88 WNW 6 9 30.03 1017 10 16 N/A
12:15 pm 12:15 Cloudy 30 -1 27 -2.7 88 88 WNW 9 15 30.03 1017 10 16 N/A
12:35 pm 12:35 Cloudy 31 -0.8 27 -2.7 87 87 NW 8 13 30.03 1017 10 16 N/A
12:55 pm 12:55 Cloudy 31 -0.4 27 -2.6 85 85 WNW 9 15 29.97 1015 10 16 N/A
1:15 pm 13:15 Cloudy with Light Snow 32 -0.2 28 -2.5 85 85 W 10 17 29.97 1015 10 16 N/A
1:35 pm 13:35 Cloudy 32 undefined 28 -2.2 85 85 WNW 13 20 29.97 1015 10 16 N/A
1:55 pm 13:55 Cloudy 33 0.5 28 -2 84 84 WNW 14 22 29.94 1014 10 16 N/A
2:15 pm 14:15 Cloudy 33 0.6 28 -2.1 82 82 WNW 12 19 29.94 1014 10 16 N/A
2:35 pm 14:35 Cloudy 33 0.5 28 -2 84 84 WNW 9 15 29.94 1014 10 16 N/A
2:55 pm 14:55 Cloudy 33 0.4 29 -1.9 85 85 NW 10 17 29.94 1014 10 16 N/A
3:15 pm 15:15 Mostly Cloudy 32 0.1 28 -2.1 85 85 NW 12 19 29.94 1014 10 16 N/A
3:35 pm 15:35 Mostly Cloudy with Mist and Fog 32 undefined 28 -2 87 87 NW 9 15 29.94 1014 5 8 N/A
3:55 pm 15:55 Mostly Cloudy 32 undefined 28 -2.1 86 86 NW 10 17 29.94 1014 10 16 N/A
4:15 pm 16:15 Cloudy with Light Snow 32 undefined 29 -1.8 88 88 WNW 7 11 29.94 1014 4 6 N/A
4:35 pm 16:35 Cloudy with Light Snow 32 -0.1 29 -1.6 90 90 WNW 8 13 29.94 1014 4 6 N/A
4:55 pm 16:55 Cloudy with Light Snow 31 -0.4 29 -1.7 91 91 WNW 12 19 29.94 1014 4 6 N/A
5:15 pm 17:15 Cloudy with Mist and Fog 31 -0.7 28 -2.1 90 90 WNW 12 19 29.97 1015 5 8 N/A
5:35 pm 17:35 Cloudy with Light Snow 30 -0.9 28 -2.5 89 89 WNW 13 20 29.97 1015 10 16 N/A
6:15 pm 18:15 Mostly Cloudy 29 -1.8 27 -3 92 92 WNW 9 15 29.97 1015 10 16 N/A
6:35 pm 18:35 Mostly Cloudy 29 -1.8 27 -3 92 92 WNW 10 17 29.97 1015 10 16 N/A
6:55 pm 18:55 Partly Cloudy 28 -2 27 -3 93 93 W 9 15 29.97 1015 10 16 N/A
7:15 pm 19:15 Clear 28 -2.5 26 -3.6 92 92 WNW 10 17 29.97 1015 10 16 N/A
7:35 pm 19:35 Clear 28 -2.5 26 -3.6 92 92 WNW 12 19 29.97 1015 10 16 N/A
7:55 pm 19:55 Partly Cloudy 27 -2.8 25 -4 92 92 W 8 13 29.97 1015 10 16 N/A
8:15 pm 20:15 Partly Cloudy 28 -2.5 25 -3.7 92 92 WNW 14 22 29.97 1015 10 16 N/A
8:35 pm 20:35 Partly Cloudy 28 -2.5 25 -3.8 91 91 WNW 15 24 29.97 1015 10 16 N/A
8:55 pm 20:55 Partly Cloudy 28 -2.5 25 -3.9 90 90 WNW 12 19 29.97 1015 10 16 N/A
9:15 pm 21:15 Partly Cloudy 27 -2.6 25 -4 90 90 W 12 19 29.94 1014 10 16 N/A
9:35 pm 21:35 Clear 27 -3 24 -4.5 90 90 W 10 17 29.94 1014 10 16 N/A
9:55 pm 21:55 Clear 26 -3.3 23 -4.8 90 90 W 10 17 29.94 1014 10 16 N/A
10:15 pm 22:15 Clear 26 -3.5 23 -4.9 90 90 W 9 15 29.94 1014 10 16 N/A
10:35 pm 22:35 Partly Cloudy 25 -4.1 22 -5.6 89 89 W 6 9 29.97 1015 10 16 N/A
10:55 pm 22:55 Clear 23 -5.2 20 -6.5 91 91 W 7 11 29.97 1015 10 16 N/A
11:15 pm 23:15 Clear 25 -3.9 23 -5.1 91 91 W 12 19 29.91 1013 10 16 N/A
11:35 pm 23:35 Partly Cloudy 26 -3.5 23 -5.2 88 88 W 13 20 29.91 1013 10 16 N/A
11:55 pm 23:55 Cloudy 29 -1.7 24 -4.3 83 83 WNW 20 31 29.91 1013 10 16 N/A

Powered by AerisWeather